RH
94 96 94 100 98 99 99 100 100 100 100 97 88 79 82 95 96 88 55 33 26 26 25 24 27 32 36 43 36 23 19 24 20 22 31 30 31 32 35 34 32 38 35 31 34 35 31
100 99 99 100 99 100 100 100 100 97 85 75 57 47 50 70 89 59 45 41 33 27 26 26 31 32 34 29 18 24 25 23 21 24 33 28 29 31 30 29 30 26 29 30 29 30 29
96 99 100 100 99 100 99 99 93 77 70 53 43 39 39 43 56 48 39 38 42 35 26 29 34 34 43 29 19 24 22 22 23 29 32 28 25 25 25 27 26 28 31 31 31 30 30
94 98 100 100 99 100 100 98 83 69 59 47 37 35 35 37 46 43 43 36 36 43 31 31 35 44 31 22 22 26 24 23 27 31 24 24 24 24 26 26 28 29 28 32 22 33 30
97 99 100 99 98 98 98 97 87 72 54 33 28 30 32 33 39 40 35 36 39 43 35 35 34 41 30 24 29 23 23 23 28 26 23 25 23 28 30 35 34 34 30 37 34 32 34
99 100 100 98 97 97 96 96 95 84 55 23 16 18 28 30 33 43 40 40 44 42 46 42 43 41 34 28 23 22 23 22 24 25 25 28 44 42 51 38 40 33 40 38 34 30 34
99 100 99 98 97 95 95 96 95 91 69 28 11 9 16 27 32 43 47 50 53 56 56 44 40 37 31 25 23 24 23 26 29 32 32 34 38 43 36 41 26 25 35 34 31 27 32
100 100 97 95 94 94 95 95 94 91 73 42 10 6 5 22 38 47 51 50 49 48 50 48 46 37 29 25 29 28 24 29 34 41 41 48 50 33 32 42 44 42 44 42 39 35 36
97 93 92 92 92 93 93 94 95 93 78 46 11 5 4 13 48 50 50 56 56 59 64 45 49 44 35 27 28 34 29 33 36 45 50 55 40 42 42 43 43 46 47 44 41 39 38
90 89 90 90 91 92 93 94 94 94 84 43 14 10 8 10 54 59 63 63 63 60 36 27 38 33 27 28 32 33 29 31 37 43 47 50 40 40 47 48 47 55 44 40 47 45 59
88 88 89 90 90 92 93 93 94 93 83 28 23 40 18 16 69 67 67 67 66 48 34 34 36 31 32 35 37 38 30 29 39 40 44 44 40 44 51 47 45 46 40 46 45 54 48
86 87 89 89 90 91 92 92 93 91 71 19 58 42 12 72 75 76 71 68 66 28 29 51 38 40 36 36 41 38 35 30 34 39 43 48 37 36 42 38 42 36 38 50 65 59 68
88 88 88 88 89 90 91 91 90 89 61 32 75 69 73 76 83 76 69 64 33 28 35 49 47 42 46 55 44 41 42 53 59 53 56 50 44 41 37 42 37 37 51 69 67 82 73
89 85 87 88 88 90 91 90 89 86 54 43 65 52 43 33 71 72 71 45 17 66 70 56 53 43 58 70 56 54 51 70 82 75 64 70 68 41 40 40 44 51 52 71 71 69 61
94 89 86 88 89 91 91 89 88 83 50 48 69 61 35 31 67 74 56 60 90 93 80 85 66 62 68 79 69 67 84 90 87 90 86 91 75 55 45 39 40 49 60 43 55 53 72
81 84 86 87 89 91 91 89 85 73 51 49 61 70 35 44 72 64 77 92 90 70 80 78 78 84 92 94 84 86 73 87 79 65 86 94 97 67 47 39 40 44 43 58 67 82 81
91 94 96 88 89 92 91 90 84 38 43 46 47 49 22 54 56 73 94 82 74 62 74 88 92 89 80 86 82 78 87 76 59 61 79 82 89 70 63 55 58 64 68 77 63 62 78
89 87 91 94 90 92 92 91 82 23 35 44 56 35 18 37 54 65 59 53 65 67 48 76 77 80 84 82 66 78 86 68 39 48 65 72 84 92 78 60 75 84 92 92 94 82 91
88 89 89 92 95 91 86 72 53 24 38 56 62 38 16 19 40 35 30 59 59 56 52 53 91 72 76 82 55 84 70 51 49 44 59 55 68 78 20 64 59 86 86 86 87 94 95
84 91 89 88 88 87 86 48 28 20 29 38 40 17 47 54 48 37 43 59 58 54 49 56 64 55 59 60 59 78 51 47 56 46 39 50 90 70 57 82 72 82 89 80 94 99 88
89 91 88 93 92 89 89 64 33 22 22 25 64 72 63 51 54 58 55 56 59 57 51 53 60 59 58 66 63 56 55 62 54 49 40 62 73 76 62 51 48 94 92 82 94 98 99
78 87 89 90 93 90 92 87 54 26 22 62 67 56 62 64 47 55 60 65 60 58 54 63 63 59 52 59 56 70 60 66 69 58 60 63 84 66 76 53 58 96 88 79 76 87 98
83 80 83 89 90 92 94 89 86 50 28 72 78 69 57 64 58 57 64 60 64 58 53 55 54 59 61 55 53 59 59 57 57 64 67 71 88 88 90 65 69 91 99 81 86 86 92
81 82 80 84 87 88 90 93 90 87 52 66 87 73 62 66 61 61 58 57 61 65 69 60 54 58 50 59 63 61 69 70 68 66 61 72 86 88 99 88 100 99 95 88 90 94 92
91 81 83 80 80 84 88 90 90 94 72 60 72 77 72 79 62 62 66 68 65 71 72 64 55 51 66 64 78 82 69 89 73 59 65 64 88 97 98 100 88 92 96 98 95 92 100
87 86 88 83 81 80 78 82 88 88 92 67 65 67 75 78 76 64 72 72 83 87 81 71 61 66 63 71 76 100 99 88 94 86 50 45 59 89 96 97 99 91 95 95 90 95 95
88 89 90 91 92 84 82 84 82 89 96 84 70 63 68 85 77 68 78 78 78 84 94 85 82 80 65 80 94 98 95 79 97 93 94 78 84 97 99 100 92 88 90 95 93 92 93
88 76 76 89 90 91 83 79 78 87 89 94 86 74 70 94 82 73 68 74 87 88 97 77 68 72 81 90 95 98 99 98 94 94 100 98 100 100 99 100 95 91 88 91 88 92 99
88 80 78 75 79 79 76 81 80 85 85 81 90 83 75 71 76 80 81 80 77 74 81 87 81 82 83 95 94 96 100 96 94 100 79 94 98 99 96 96 96 92 91 90 94 94 96
Wind_Speed
15 16 16 17 18 18 19 19 20 20 20 19 19 19 18 16 12 9 8 9 8 8 6 6 5 4 1 2 7 1 14 14 14 14 11 6 5 5 3 4 3 4 5 5 8 9 7
17 17 17 18 18 19 20 20 21 20 20 20 20 20 21 20 14 7 5 7 8 8 7 7 5 4 2 3 2 6 14 14 11 13 7 6 6 7 3 4 5 2 4 7 7 9 5
17 18 18 18 19 20 20 20 21 21 21 21 20 21 21 21 15 7 3 3 5 7 7 7 5 4 1 10 2 8 12 11 10 12 4 5 3 3 1 4 3 3 6 7 7 4 7
18 18 19 19 20 20 21 21 22 21 22 21 20 21 21 21 16 8 5 6 4 6 7 7 5 3 6 3 5 12 12 7 6 7 2 3 6 2 2 3 7 4 2 4 3 5 2
18 18 19 20 20 21 21 22 22 23 23 22 21 20 20 20 18 10 6 3 2 5 6 6 4 2 7 1 5 14 11 7 9 6 4 5 4 2 3 3 5 3 4 5 9 4 3
17 18 19 20 21 21 22 22 23 23 23 23 22 21 19 18 18 7 5 4 10 9 8 5 2 2 4 4 4 12 9 12 4 4 4 4 4 2 2 4 6 6 5 5 6 1 2
17 19 20 21 21 22 22 23 23 23 23 22 21 21 19 16 16 3 6 7 3 3 3 7 5 3 2 3 6 5 7 6 4 5 4 0 3 10 15 10 3 2 3 5 4 3 3
18 20 21 22 22 23 23 24 24 24 24 23 22 21 20 14 11 2 6 3 2 1 6 4 4 5 4 1 3 2 13 5 3 5 4 3 8 11 4 7 7 6 6 9 8 5 6
19 21 22 22 23 24 24 25 25 25 25 24 23 22 19 12 0 4 5 3 1 1 1 4 4 4 3 6 3 8 8 4 3 5 6 6 6 3 7 4 6 8 8 5 9 5 4
20 21 22 23 23 24 25 26 26 26 26 25 25 23 17 9 4 3 3 2 1 2 4 2 1 1 1 3 1 1 8 5 2 8 5 6 6 7 3 5 8 6 10 12 7 0 4
20 21 22 23 24 25 26 26 27 28 27 26 24 20 12 4 2 4 2 1 2 2 3 1 1 2 2 4 4 4 1 2 4 4 5 6 2 3 4 8 8 8 6 7 4 4 1
20 21 22 24 25 26 27 28 28 29 28 25 15 11 1 5 3 3 1 1 2 5 4 2 1 1 3 1 2 2 2 3 1 2 3 7 3 3 7 4 6 1 3 5 4 3 3
20 21 22 24 26 27 28 30 30 29 27 14 7 13 9 5 1 3 0 3 4 4 5 5 3 4 3 5 3 1 3 5 3 4 4 5 4 3 2 2 2 3 5 3 3 1 7
20 21 23 25 27 28 29 31 31 30 26 3 4 9 11 17 3 1 3 4 3 3 3 3 3 3 5 8 4 4 3 3 9 5 2 2 6 0 3 4 3 5 7 5 4 4 4
22 23 24 26 27 29 31 34 34 31 21 4 5 2 15 22 1 3 4 4 2 3 4 6 4 5 3 5 4 5 5 3 6 7 2 5 5 5 3 2 5 1 4 4 5 4 1
22 24 25 27 29 30 33 36 36 32 16 3 2 2 11 16 3 3 4 5 3 5 5 3 2 4 3 6 4 6 2 3 2 7 2 3 7 5 6 3 1 4 2 3 1 4 8
23 25 26 27 30 32 35 37 38 32 11 3 1 3 19 7 4 5 4 3 4 5 6 6 3 4 4 4 4 3 3 5 5 5 7 4 3 3 7 3 4 6 4 5 3 5 9
24 25 28 29 32 35 37 39 40 31 13 4 3 3 22 6 4 3 3 3 6 7 8 7 5 6 5 6 4 3 3 4 9 2 3 2 2 5 6 5 12 7 6 5 2 5 4
25 27 27 30 33 37 41 44 45 30 17 4 3 1 13 8 4 2 3 5 5 7 6 6 7 6 5 3 3 5 5 6 9 5 2 4 3 5 6 3 8 6 6 4 4 5 3
25 26 28 28 33 39 43 46 48 31 13 4 3 3 4 5 2 5 4 3 3 6 4 5 4 6 6 5 5 2 3 2 8 3 12 5 3 6 5 2 0 3 5 4 1 2 5
24 26 28 31 33 35 41 45 47 37 18 4 4 2 0 3 5 6 4 3 3 5 4 6 4 5 2 2 3 2 2 6 7 9 4 3 3 2 3 8 3 3 3 5 3 2 5
24 26 27 29 31 33 36 42 45 45 15 12 3 3 3 3 3 5 6 3 2 3 2 3 4 2 2 3 4 5 2 1 5 4 3 5 3 4 5 2 4 6 6 6 6 2 3
24 24 26 28 29 32 34 37 40 43 26 9 6 3 3 5 3 3 2 1 2 0 2 4 1 1 2 3 3 7 8 8 7 3 2 3 2 2 4 4 6 1 3 4 3 3 3
22 24 24 26 27 29 30 31 33 32 33 13 7 2 3 2 3 3 2 2 3 2 1 4 3 1 2 6 7 3 3 4 4 8 8 3 1 2 3 1 2 1 3 3 5 3 4
22 22 24 24 24 26 26 27 26 27 24 25 17 4 3 3 3 4 4 3 3 4 4 2 2 2 5 3 3 4 1 3 2 5 5 7 2 1 2 1 3 3 2 2 3 3 1
20 22 21 22 23 22 23 24 23 20 20 14 21 10 4 4 0 3 3 2 2 2 5 2 4 6 4 1 1 1 2 2 2 2 5 5 5 2 3 2 4 3 1 2 3 3 3
21 22 22 21 21 21 21 21 21 21 18 11 9 14 7 3 1 2 2 2 2 2 0 2 5 5 3 2 0 0 0 2 1 2 5 4 4 3 2 1 4 4 4 1 3 2 3
20 22 22 22 21 20 21 20 19 19 15 12 5 9 5 2 1 1 2 2 2 2 2 3 2 2 2 2 1 1 2 1 4 2 1 2 2 1 2 3 4 2 2 3 3 3 3
20 22 22 22 21 20 21 19 18 17 12 7 2 3 6 5 2 2 2 1 2 2 2 1 1 1 1 1 0 2 2 3 3 1 4 2 0 1 3 2 1 2 3 2 4 3 4
Wind_Direction
21 19 15 13 11 9 8 6 5 1 359 357 360 360 358 349 337 311 271 243 231 228 228 219 214 211 219 247 255 283 149 158 163 172 169 144 133 153 191 214 172 222 258 234 243 268 250
19 17 13 10 9 7 6 4 0 358 357 356 359 2 2 357 346 326 283 251 236 225 216 206 206 195 201 253 285 175 164 168 177 177 171 139 186 196 215 233 180 237 248 268 270 252 241
16 13 11 10 8 6 2 360 357 355 354 353 357 359 2 4 355 340 323 305 256 230 212 201 196 192 212 239 268 180 174 181 185 184 146 194 170 153 138 287 296 280 306 312 243 230 231
12 9 9 8 7 4 360 357 355 352 349 350 352 354 357 1 358 352 321 304 260 220 202 189 179 176 246 266 234 183 170 161 182 177 132 138 191 155 184 295 354 342 25 337 282 143 334
6 6 7 6 4 1 357 354 352 349 348 348 348 347 350 355 356 351 340 322 210 177 168 159 156 147 266 271 162 187 178 156 149 155 127 111 106 153 51 85 349 345 258 228 314 195 127
6 6 5 3 359 357 354 352 349 347 346 344 343 342 342 347 351 2 27 76 110 117 114 128 3 21 271 231 164 175 178 148 118 101 57 71 57 88 55 117 235 211 226 245 247 255 162
7 3 1 359 355 353 350 348 346 344 342 339 338 337 335 337 344 333 133 112 43 8 232 188 193 237 83 93 113 149 155 111 90 66 154 64 131 214 208 202 212 160 213 254 254 253 277
5 2 359 355 353 350 349 346 344 341 338 335 332 331 330 330 340 27 152 122 127 157 299 235 233 290 283 208 87 93 161 137 140 181 133 53 237 238 187 209 230 261 282 276 289 248 182
3 358 356 354 352 350 348 346 342 339 336 333 330 326 326 325 5 101 110 101 48 150 159 307 184 173 214 158 196 195 140 135 145 168 196 182 229 81 179 186 205 233 230 236 240 315 256
1 358 355 355 353 350 348 345 341 338 335 333 330 324 320 321 158 129 103 82 106 146 58 290 96 30 113 124 112 17 174 138 191 209 200 236 262 256 167 229 186 262 207 236 247 135 256
1 358 355 355 352 349 348 345 341 338 335 335 330 324 316 231 127 134 124 78 135 101 9 9 12 324 40 125 143 3 203 69 214 199 129 249 277 186 187 222 158 238 178 207 214 194 320
1 359 358 357 356 353 351 346 342 338 336 338 344 345 19 126 134 113 12 133 120 51 257 10 28 61 105 44 53 56 65 48 42 271 211 243 295 266 213 209 177 163 124 51 56 101 255
4 1 0 358 356 354 352 348 343 340 339 345 57 55 57 60 67 319 219 90 52 148 350 351 350 14 97 353 58 108 128 36 24 358 350 323 246 283 174 245 234 124 76 307 307 115 233
6 1 0 358 355 354 353 350 346 342 340 328 120 72 52 15 325 316 140 61 190 64 349 341 1 332 86 358 50 7 79 103 30 6 292 343 328 312 332 190 220 188 172 183 247 228 269
6 2 1 359 356 356 354 351 349 344 343 202 199 289 19 1 64 153 82 65 56 11 301 335 331 58 43 357 29 31 57 65 35 8 38 356 271 319 301 266 152 141 171 224 257 242 290
7 6 4 1 359 358 356 354 351 349 356 183 177 349 13 355 84 110 76 101 90 9 331 321 37 23 55 353 46 22 61 1 43 10 276 41 291 272 314 346 47 177 236 276 346 275 255
10 12 8 5 2 1 360 358 355 357 10 129 69 54 352 21 71 53 90 75 101 39 23 25 58 38 53 18 353 322 49 50 26 358 41 14 223 292 11 312 18 347 353 355 290 239 262
14 10 11 10 7 5 3 3 1 3 12 65 81 55 351 39 52 31 58 32 9 1 12 27 67 57 41 12 357 343 41 64 355 5 32 305 262 280 226 325 73 58 45 28 328 307 284
14 12 10 12 10 8 8 10 10 10 11 19 72 360 360 37 99 70 46 70 59 20 25 22 33 47 12 30 10 12 24 117 32 43 32 331 315 327 331 70 45 39 49 24 285 250 255
14 15 15 12 11 11 11 14 14 11 17 64 70 52 356 37 32 103 107 48 78 25 60 69 72 59 36 16 15 313 331 28 351 338 318 248 228 186 211 170 212 329 35 357 298 241 316
17 16 17 17 16 13 15 13 16 13 19 76 28 76 239 23 25 70 81 62 47 18 23 35 81 81 81 345 318 299 30 353 327 318 15 71 210 294 300 316 332 97 24 34 97 218 172
15 16 18 19 18 16 16 16 18 20 24 70 85 95 30 55 32 56 31 48 71 337 15 62 71 355 168 201 210 273 332 156 243 331 53 1 294 341 295 285 135 104 29 111 63 11 115
19 15 17 19 19 19 19 20 19 24 35 66 31 67 92 354 44 64 35 109 64 317 38 100 120 321 268 268 235 254 233 231 233 239 1 279 196 75 273 126 134 325 7 46 129 70 312
16 16 17 18 19 19 20 21 22 24 35 53 30 32 73 54 67 79 105 101 63 43 274 333 42 80 262 336 298 257 221 238 237 257 194 233 152 211 245 271 247 120 26 54 98 75 25
17 15 17 15 17 16 17 19 20 23 28 41 34 48 69 93 91 94 81 70 57 6 21 306 268 231 332 314 354 7 260 169 76 37 70 204 213 285 127 160 319 338 323 49 98 273 312
14 13 13 13 12 12 13 14 14 17 20 29 35 36 78 116 287 93 104 65 90 358 355 286 320 331 19 14 324 130 229 6 147 152 71 83 36 130 82 152 237 235 269 10 121 292 268
11 11 9 7 8 8 9 9 8 10 8 20 35 30 60 97 337 62 122 144 118 95 226 307 337 356 9 6 323 181 66 323 83 46 341 357 7 73 15 140 296 250 282 4 89 267 297
7 7 3 3 1 2 3 1 3 2 1 8 22 37 48 91 337 43 56 121 77 87 116 296 25 359 355 41 83 304 100 93 86 109 61 89 62 360 61 52 309 232 351 176 185 289 240
2 1 359 1 2 360 355 354 354 353 0 345 353 73 56 79 154 12 14 265 51 117 138 316 200 253 267 357 357 93 40 38 147 78 31 14 157 267 181 237 229 265 221 241 132 166 292